Regional Weather Roundup
Issued by NWS

Home | Current Version | Previous Version | Graphics & Text | Print | Product List | Glossary On
Versions: 1 2 3 4 5 6 7 8 9 10 11 12 13 14 15 16 17 18 19 20 21 22 23 24 25 26 27 28 29 30 31 32 33 34 35 36 37 38 39 40 41 42 43 44 45 46 47 48 49 50
000
ASUS45 KBOI 251910
RWRID
WEATHER ROUNDUP FOR IDAHO
NATIONAL WEATHER SERVICE BOISE ID
100 PM MDT SAT APR 25 2015

NOTE: "FAIR" INDICATES FEW OR NO CLOUDS BELOW 12000 FEET
WITH NO SIGNIFICANT WEATHER AND/OR OBSTRUCTIONS TO VISIBILITY

IDZ012-014-252000-
SOUTHWEST IDAHO


CITY           SKY/WX    TMP DP  RH WIND       PRES   REMARKS
BOISE          MOSUNNY   57  28  33 NW13      29.79F
CALDWELL       MOSUNNY   57  28  33 W12       29.82S
MOUNTAIN HOME  CLOUDY    55  27  34 VRB3      29.78F
$$

IDZ016-017-252000-
SOUTHCENTRAL IDAHO


CITY           SKY/WX    TMP DP  RH WIND       PRES   REMARKS
BURLEY         CLOUDY    52  31  44 VRB5      29.76F
JEROME         CLOUDY    50  29  44 VRB5      29.79F
TWIN FALLS     CLOUDY    51  31  46 MISG      29.78F
$$

IDZ019>023-252000-
SOUTHEAST IDAHO


CITY           SKY/WX    TMP DP  RH WIND       PRES   REMARKS
IDAHO FALLS    PTSUNNY   49  28  44 SW10      29.80F
POCATELLO      PTSUNNY   53  30  41 CALM      29.79F
REXBURG        CLOUDY    46  31  55 SW9       29.80S
$$

IDZ006-010-011-018-031-032-252000-
CENTRAL IDAHO MOUNTAINS


CITY           SKY/WX    TMP DP  RH WIND       PRES   REMARKS
MCCALL         PTSUNNY   43  26  51 NW3       29.77F
HAILEY         PTSUNNY   46  32  57 SE12      29.78F
STANLEY          N/A     40  29  64 VRB3      29.77F
SALMON         MOSUNNY   50  28  43 CALM      29.77F
CHALLIS        PTSUNNY   47  22  37 MISG      29.75F
$$

IDZ002-004-006-007-026-252000-
NORTHERN IDAHO


CITY           SKY/WX    TMP DP  RH WIND       PRES   REMARKS
LEWISTON       PTSUNNY   54  33  45 W13       29.88S
LOWELL           N/A     58  28  32 VRB7      29.82F
COEUR D`ALENE  PTSUNNY   45  37  76 S8        29.89S
MULLAN PASS    PTSUNNY   37  26  64 NW7       29.80S WCI  32
$$



USA.gov is the U.S. government's official web portal to all federal, state and local government web resources and services.